PDT,Max TemperatureF,Mean TemperatureF,Min TemperatureF,Max Dew PointF,MeanDew PointF,Min DewpointF,Max Humidity, Mean Humidity, Min Humidity, Max Sea Level PressureIn, Mean Sea Level PressureIn, Min Sea Level PressureIn, Max VisibilityMiles, Mean VisibilityMiles, Min VisibilityMiles, Max Wind SpeedMPH, Mean Wind SpeedMPH, Max Gust SpeedMPH,PrecipitationIn, CloudCover, Events, WindDirDegrees
2013-7-1,105,94,84,,,,,,,29.82,29.81,29.80,20,20,20,15,4,,0.00,4,,170
2013-7-2,105,94,82,,,,,,,29.92,29.85,29.82,20,20,20,25,14,,0.00,4,,261
2013-7-3,111,99,87,,,,,,,29.90,29.83,29.70,20,20,20,21,11,,0.00,4,,283
2013-7-4,107,96,86,,,,,,,29.78,29.71,29.67,20,20,20,18,10,25,0.00,1,,295
2013-7-5,107,102,96,,,,,,,29.78,29.73,29.67,20,20,20,15,6,29,0.00,2,,222
2013-7-6,100,98,96,,,,,,,29.74,29.72,29.71,20,20,20,14,8,,0.00,1,,275
2013-7-7,100,99,98,,,,,,,29.81,29.79,29.76,20,20,20,18,10,29,0.00,0,,270
2013-7-8,111,96,82,,,,,,,29.96,29.93,29.88,20,20,20,21,17,26,0.00,0,,230
2013-7-9,104,92,80,,,,,,,30.04,30.00,29.97,20,20,20,15,6,,0.00,0,,257
2013-7-10,96,88,80,,,,,,,30.00,29.94,29.88,20,20,20,9,6,,0.00,5,,261
2013-7-11,91,86,82,,,,,,,29.96,29.91,29.86,20,20,20,12,9,,0.00,6,,127
2013-7-12,100,84,68,,,,,,,29.95,29.89,29.82,20,20,20,18,6,,0.00,4,,281
2013-7-13,89,82,75,,,,,,,29.90,29.89,29.89,20,20,20,21,11,32,0.00,1,,255
2013-7-14,89,82,75,,,,,,,29.92,29.88,29.85,20,20,20,14,8,28,0.00,1,,280
2013-7-15,100,90,80,,,,,,,29.87,29.83,29.76,20,20,20,9,4,,0.00,1,,218
2013-7-16,96,86,75,,,,,,,29.94,29.90,29.84,20,20,20,8,5,,0.00,2,,209
2013-7-17,100,88,77,,,,,,,30.07,30.01,29.95,20,20,20,10,6,,0.00,1,,287
2013-7-18,102,86,69,,,,,,,30.09,29.98,29.85,20,17,10,12,3,,0.00,2,,225
2013-7-19,105,91,77,,,,,,,29.92,29.87,29.76,20,14,10,9,5,,0.00,1,,235
2013-7-20,100,94,87,,,,,,,29.84,29.78,29.73,20,20,20,17,16,,0.00,4,,204
2013-7-21,96,92,87,,,,,,,29.88,29.86,29.84,20,20,20,9,6,33,0.00,4,,210
2013-7-22,95,86,77,,,,,,,30.00,29.97,29.92,20,20,20,12,6,,0.00,6,Rain,180
2013-7-23,98,86,75,,,,,,,30.33,30.04,29.90,20,20,20,30,14,,0.00,2,,263
2013-7-24,100,94,87,,,,,,,29.98,29.93,29.84,20,20,20,14,5,,0.00,2,,287
2013-7-25,102,88,75,,,,,,,29.98,29.94,29.90,20,20,20,17,4,,0.00,3,,245
2013-7-26,98,90,82,,,,,,,30.08,30.03,30.01,20,20,20,9,5,25,0.00,6,,290
2013-7-27,96,91,86,,,,,,,30.02,29.91,29.85,20,20,20,5,3,,0.00,4,,-1
2013-7-28,93,86,78,,,,,,,29.86,29.82,29.80,20,20,20,9,6,,0.00,1,,350
2013-7-29,96,86,75,59,59,59,36,36,36,29.95,29.93,29.88,20,20,20,12,4,,0.00,0,,200
2013-7-30,98,86,75,,,,,,,30.10,30.03,29.97,20,20,20,13,5,,0.00,0,,190
2013-7-31,96,86,75,,,,,,,30.07,30.01,29.92,20,20,20,12,5,,0.00,1,,220